Location: Cabo di Oristano
(39.8500°N, 8.4333°E)
Time: 16:22:30
(UTC+00:00)

Cosmos 2333 Rocket - Pass Details

Date: 31 January 2023
Orbit: 837 x 864 km, 70.8° (Epoch: 01 April)

Event Time Altitude Azimuth Distance (km) Brightness Sun altitude
Exits shadow 05:39:53 - 324° (NW) 2,852 4.5 -11.0°
Reaches altitude 10° 05:40:54 10° 320° (NW) 2,496 4.2 -10.8°
Maximum altitude 05:46:05 36° 255° (WSW) 1,323 2.8 -9.9°
Drops below altitude 10° 05:51:17 10° 190° (S) 2,493 4.7 -8.9°
Sets 05:53:54 0° 182° (S) 3,427 5.6 -8.4°
